QPF
0.01 0.05 0.07 0.06 0.05 0.06 0.07 0.07 0.09 0.12 0.16 0.20 0.21 0.17 0.15 0.11 0.10 0.08 0.06 0.05 0.05 0.06 0.05 0.03 0.03 0.03 0.03 0.02 0.02 0.02 0.02 0.02 0.02 0.03 0.04 0.03 0.03 0.03 0.03 0.02 0.02 0.01 0.01
0.03 0.07 0.09 0.08 0.07 0.06 0.06 0.06 0.08 0.10 0.14 0.16 0.16 0.14 0.13 0.10 0.08 0.09 0.07 0.07 0.08 0.08 0.06 0.05 0.04 0.03 0.03 0.03 0.02 0.02 0.02 0.03 0.02 0.02 0.03 0.02 0.02 0.01 0.01 0.01 0.02 0.02 0.02
0.03 0.05 0.05 0.06 0.06 0.05 0.05 0.06 0.07 0.09 0.14 0.16 0.14 0.16 0.15 0.10 0.08 0.08 0.07 0.07 0.09 0.09 0.07 0.06 0.06 0.03 0.03 0.02 0.02 0.02 0.01 0.02 0.02 0.01 0.01 0.01 0.00 0.00 0.00 0.00 0.01 0.01 0.02
0.02 0.03 0.04 0.05 0.05 0.08 0.08 0.07 0.07 0.09 0.14 0.15 0.13 0.11 0.10 0.06 0.06 0.07 0.08 0.09 0.08 0.08 0.07 0.08 0.06 0.04 0.03 0.02 0.03 0.03 0.02 0.02 0.01 0.01 0.01 0.01 0.00 0.00 0.00 0.00 0.00 0.00 0.01
0.02 0.03 0.05 0.05 0.05 0.08 0.08 0.06 0.07 0.08 0.09 0.10 0.12 0.10 0.09 0.06 0.06 0.07 0.08 0.08 0.08 0.07 0.08 0.08 0.07 0.05 0.03 0.04 0.04 0.02 0.02 0.01 0.01 0.01 0.01 0.01 0.01 0.01 0.00 0.00 0.00 0.00 0.01
0.02 0.03 0.04 0.04 0.07 0.10 0.09 0.05 0.06 0.07 0.06 0.07 0.10 0.10 0.11 0.10 0.08 0.06 0.06 0.07 0.08 0.08 0.10 0.10 0.08 0.05 0.04 0.03 0.04 0.04 0.03 0.02 0.01 0.01 0.01 0.02 0.02 0.01 0.00 0.00 0.00 0.00 0.00
0.03 0.02 0.02 0.03 0.04 0.05 0.07 0.04 0.04 0.04 0.04 0.05 0.07 0.09 0.10 0.11 0.11 0.10 0.10 0.09 0.08 0.09 0.12 0.11 0.08 0.06 0.05 0.04 0.05 0.05 0.04 0.02 0.02 0.01 0.01 0.01 0.02 0.02 0.01 0.00 0.00 0.00 0.00
0.02 0.02 0.03 0.04 0.02 0.01 0.02 0.03 0.03 0.03 0.03 0.03 0.04 0.09 0.08 0.08 0.09 0.10 0.10 0.08 0.06 0.07 0.09 0.12 0.10 0.07 0.06 0.06 0.07 0.06 0.04 0.02 0.02 0.01 0.01 0.02 0.02 0.02 0.01 0.01 0.01 0.01 0.00
0.03 0.02 0.03 0.03 0.01 0.01 0.02 0.03 0.02 0.03 0.03 0.03 0.04 0.07 0.08 0.05 0.04 0.06 0.06 0.06 0.07 0.09 0.09 0.11 0.10 0.10 0.08 0.06 0.06 0.04 0.04 0.03 0.02 0.02 0.03 0.04 0.03 0.02 0.02 0.02 0.01 0.01 0.01
0.02 0.02 0.01 0.01 0.01 0.01 0.01 0.01 0.02 0.02 0.02 0.03 0.03 0.04 0.05 0.04 0.03 0.04 0.04 0.06 0.09 0.09 0.07 0.09 0.10 0.09 0.08 0.05 0.03 0.03 0.03 0.03 0.03 0.03 0.04 0.04 0.04 0.04 0.03 0.02 0.02 0.01 0.01
0.03 0.02 0.02 0.01 0.01 0.01 0.01 0.01 0.02 0.02 0.01 0.02 0.03 0.03 0.04 0.04 0.04 0.03 0.03 0.04 0.07 0.06 0.05 0.06 0.08 0.08 0.07 0.05 0.04 0.04 0.05 0.04 0.04 0.04 0.04 0.04 0.04 0.04 0.04 0.03 0.03 0.02 0.02
0.04 0.03 0.02 0.02 0.01 0.01 0.01 0.01 0.01 0.01 0.01 0.01 0.01 0.02 0.03 0.03 0.02 0.02 0.02 0.02 0.03 0.03 0.02 0.03 0.04 0.05 0.06 0.06 0.06 0.06 0.06 0.05 0.05 0.06 0.06 0.05 0.05 0.04 0.04 0.04 0.03 0.03 0.02
0.03 0.02 0.03 0.03 0.02 0.01 0.01 0.01 0.00 0.01 0.01 0.01 0.01 0.01 0.02 0.02 0.02 0.03 0.04 0.03 0.03 0.03 0.03 0.03 0.05 0.06 0.06 0.06 0.05 0.06 0.06 0.06 0.05 0.07 0.07 0.07 0.07 0.05 0.05 0.05 0.05 0.05 0.04
0.02 0.02 0.02 0.03 0.03 0.03 0.02 0.01 0.01 0.01 0.01 0.01 0.01 0.01 0.02 0.02 0.02 0.03 0.03 0.03 0.03 0.04 0.05 0.06 0.06 0.07 0.08 0.07 0.06 0.07 0.08 0.08 0.08 0.08 0.08 0.09 0.09 0.07 0.07 0.08 0.08 0.08 0.08
0.02 0.02 0.02 0.02 0.02 0.03 0.02 0.01 0.01 0.01 0.00 0.00 0.01 0.01 0.02 0.02 0.02 0.02 0.02 0.02 0.02 0.03 0.04 0.06 0.08 0.09 0.09 0.10 0.10 0.10 0.11 0.10 0.09 0.08 0.08 0.08 0.09 0.09 0.09 0.09 0.09 0.09 0.08
0.04 0.04 0.04 0.04 0.03 0.03 0.02 0.01 0.01 0.01 0.00 0.00 0.00 0.01 0.01 0.02 0.03 0.02 0.03 0.02 0.02 0.03 0.04 0.06 0.09 0.12 0.15 0.19 0.20 0.18 0.16 0.15 0.12 0.10 0.09 0.09 0.09 0.09 0.09 0.08 0.07 0.06 0.06
0.06 0.05 0.06 0.06 0.05 0.04 0.03 0.02 0.02 0.02 0.01 0.00 0.01 0.01 0.01 0.01 0.02 0.03 0.03 0.03 0.04 0.04 0.05 0.06 0.07 0.09 0.13 0.17 0.16 0.14 0.12 0.11 0.10 0.09 0.08 0.08 0.08 0.10 0.09 0.09 0.09 0.07 0.08
0.04 0.05 0.06 0.07 0.06 0.06 0.05 0.04 0.04 0.04 0.02 0.01 0.01 0.01 0.02 0.02 0.02 0.03 0.04 0.05 0.04 0.04 0.04 0.04 0.05 0.05 0.07 0.11 0.12 0.12 0.10 0.09 0.09 0.07 0.06 0.06 0.06 0.06 0.07 0.08 0.09 0.09 0.09
0.06 0.08 0.07 0.05 0.05 0.06 0.07 0.08 0.08 0.06 0.04 0.03 0.02 0.02 0.03 0.04 0.04 0.05 0.06 0.07 0.08 0.07 0.05 0.06 0.07 0.09 0.10 0.11 0.09 0.09 0.07 0.07 0.06 0.05 0.06 0.06 0.05 0.07 0.09 0.11 0.13 0.13 0.12
0.06 0.07 0.06 0.06 0.07 0.08 0.08 0.09 0.10 0.08 0.06 0.05 0.04 0.04 0.05 0.04 0.04 0.05 0.06 0.07 0.09 0.09 0.09 0.08 0.08 0.08 0.08 0.11 0.10 0.09 0.08 0.08 0.07 0.06 0.06 0.07 0.08 0.11 0.12 0.13 0.14 0.13 0.12
0.06 0.06 0.06 0.07 0.09 0.10 0.10 0.10 0.11 0.10 0.08 0.07 0.05 0.04 0.05 0.05 0.05 0.04 0.04 0.05 0.06 0.06 0.07 0.07 0.07 0.07 0.09 0.11 0.10 0.09 0.08 0.08 0.07 0.06 0.06 0.06 0.09 0.11 0.11 0.10 0.10 0.11 0.10
0.05 0.05 0.06 0.09 0.11 0.10 0.09 0.08 0.09 0.10 0.10 0.08 0.07 0.05 0.04 0.06 0.05 0.05 0.04 0.04 0.06 0.07 0.06 0.07 0.07 0.08 0.09 0.09 0.09 0.09 0.08 0.08 0.07 0.07 0.06 0.06 0.06 0.06 0.08 0.09 0.10 0.11 0.11
0.08 0.07 0.07 0.08 0.09 0.09 0.08 0.06 0.06 0.05 0.06 0.06 0.06 0.06 0.05 0.04 0.04 0.06 0.07 0.07 0.07 0.06 0.05 0.06 0.07 0.09 0.10 0.10 0.10 0.11 0.12 0.12 0.10 0.09 0.08 0.07 0.05 0.05 0.05 0.07 0.08 0.09 0.10
0.05 0.06 0.08 0.10 0.10 0.07 0.06 0.04 0.03 0.03 0.04 0.06 0.06 0.07 0.06 0.05 0.04 0.05 0.06 0.08 0.09 0.08 0.06 0.05 0.05 0.06 0.07 0.08 0.09 0.10 0.11 0.11 0.08 0.07 0.07 0.06 0.05 0.04 0.04 0.05 0.05 0.06 0.07
0.03 0.03 0.05 0.08 0.08 0.07 0.04 0.02 0.01 0.01 0.04 0.05 0.06 0.05 0.05 0.04 0.03 0.04 0.05 0.05 0.05 0.06 0.05 0.05 0.06 0.07 0.07 0.07 0.06 0.06 0.06 0.06 0.06 0.05 0.05 0.05 0.05 0.05 0.04 0.04 0.05 0.06 0.06
0.03 0.03 0.03 0.03 0.04 0.04 0.02 0.01 0.01 0.01 0.02 0.04 0.05 0.04 0.04 0.03 0.04 0.04 0.05 0.05 0.05 0.05 0.04 0.05 0.07 0.09 0.09 0.08 0.06 0.06 0.06 0.06 0.05 0.03 0.03 0.04 0.04 0.04 0.04 0.04 0.04 0.04 0.03
MSLP
1011.70 1012.01 1012.30 1012.57 1012.81 1013.05 1013.32 1013.62 1013.99 1014.41 1014.88 1015.38 1015.88 1016.35 1016.77 1017.15 1017.47 1017.75 1018.00 1018.24 1018.49 1018.74 1018.99 1019.25 1019.51 1019.76 1020.01 1020.25 1020.50 1020.76 1021.05 1021.34 1021.65 1021.94 1022.19 1022.39 1022.52 1022.57 1022.56 1022.48 1022.39 1022.30 1022.25
1011.90 1012.21 1012.47 1012.67 1012.82 1012.95 1013.11 1013.33 1013.66 1014.10 1014.63 1015.22 1015.83 1016.40 1016.90 1017.31 1017.62 1017.86 1018.04 1018.21 1018.39 1018.59 1018.82 1019.08 1019.35 1019.64 1019.91 1020.18 1020.44 1020.71 1020.99 1021.28 1021.58 1021.88 1022.15 1022.38 1022.54 1022.62 1022.62 1022.56 1022.45 1022.34 1022.25
1012.03 1012.37 1012.64 1012.81 1012.90 1012.95 1013.03 1013.19 1013.48 1013.92 1014.49 1015.14 1015.83 1016.47 1017.03 1017.47 1017.77 1017.97 1018.09 1018.19 1018.29 1018.44 1018.64 1018.88 1019.16 1019.46 1019.75 1020.03 1020.30 1020.56 1020.82 1021.11 1021.41 1021.71 1022.01 1022.27 1022.47 1022.60 1022.64 1022.60 1022.50 1022.38 1022.26
1012.06 1012.46 1012.78 1012.98 1013.06 1013.09 1013.11 1013.22 1013.47 1013.89 1014.46 1015.14 1015.86 1016.55 1017.14 1017.59 1017.89 1018.05 1018.13 1018.16 1018.21 1018.31 1018.47 1018.70 1018.98 1019.27 1019.57 1019.85 1020.11 1020.36 1020.61 1020.88 1021.17 1021.49 1021.80 1022.10 1022.34 1022.51 1022.60 1022.59 1022.51 1022.39 1022.25
1012.01 1012.50 1012.91 1013.17 1013.29 1013.32 1013.33 1013.40 1013.60 1013.97 1014.52 1015.18 1015.90 1016.60 1017.19 1017.64 1017.93 1018.07 1018.12 1018.12 1018.13 1018.20 1018.34 1018.56 1018.83 1019.12 1019.41 1019.68 1019.93 1020.16 1020.40 1020.65 1020.93 1021.24 1021.56 1021.87 1022.15 1022.36 1022.49 1022.52 1022.46 1022.35 1022.20
1011.90 1012.50 1013.01 1013.37 1013.56 1013.63 1013.63 1013.68 1013.83 1014.15 1014.63 1015.25 1015.92 1016.59 1017.17 1017.60 1017.88 1018.01 1018.05 1018.05 1018.06 1018.12 1018.26 1018.47 1018.74 1019.03 1019.32 1019.58 1019.81 1020.02 1020.23 1020.45 1020.71 1021.00 1021.31 1021.62 1021.91 1022.15 1022.30 1022.36 1022.33 1022.24 1022.10
1011.76 1012.45 1013.08 1013.55 1013.82 1013.94 1013.97 1014.00 1014.11 1014.36 1014.77 1015.31 1015.91 1016.52 1017.06 1017.47 1017.74 1017.89 1017.94 1017.95 1017.98 1018.06 1018.22 1018.44 1018.72 1019.02 1019.30 1019.55 1019.77 1019.95 1020.13 1020.31 1020.53 1020.78 1021.07 1021.36 1021.64 1021.88 1022.04 1022.13 1022.13 1022.07 1021.96
1011.61 1012.39 1013.10 1013.67 1014.03 1014.21 1014.27 1014.30 1014.38 1014.56 1014.89 1015.34 1015.86 1016.40 1016.89 1017.28 1017.55 1017.71 1017.79 1017.84 1017.90 1018.02 1018.21 1018.46 1018.75 1019.05 1019.33 1019.57 1019.77 1019.93 1020.08 1020.23 1020.40 1020.62 1020.86 1021.11 1021.36 1021.58 1021.75 1021.85 1021.88 1021.86 1021.79
1011.48 1012.29 1013.07 1013.70 1014.14 1014.38 1014.48 1014.52 1014.57 1014.71 1014.97 1015.34 1015.79 1016.25 1016.69 1017.06 1017.32 1017.50 1017.62 1017.72 1017.83 1017.99 1018.21 1018.49 1018.79 1019.10 1019.38 1019.62 1019.81 1019.95 1020.07 1020.19 1020.33 1020.50 1020.69 1020.90 1021.11 1021.30 1021.46 1021.57 1021.63 1021.65 1021.65
1011.35 1012.16 1012.97 1013.64 1014.12 1014.41 1014.56 1014.62 1014.67 1014.79 1015.00 1015.31 1015.69 1016.10 1016.49 1016.83 1017.10 1017.30 1017.46 1017.60 1017.76 1017.96 1018.21 1018.51 1018.83 1019.14 1019.43 1019.66 1019.85 1019.99 1020.10 1020.20 1020.31 1020.44 1020.60 1020.76 1020.94 1021.10 1021.24 1021.35 1021.44 1021.51 1021.57
1011.23 1012.01 1012.80 1013.47 1013.98 1014.30 1014.49 1014.58 1014.66 1014.78 1014.97 1015.25 1015.59 1015.96 1016.32 1016.64 1016.91 1017.13 1017.32 1017.50 1017.70 1017.93 1018.21 1018.52 1018.84 1019.16 1019.45 1019.69 1019.89 1020.04 1020.16 1020.27 1020.37 1020.49 1020.62 1020.76 1020.89 1021.03 1021.15 1021.26 1021.36 1021.48 1021.60
1011.12 1011.85 1012.58 1013.23 1013.74 1014.09 1014.31 1014.45 1014.56 1014.71 1014.91 1015.18 1015.49 1015.84 1016.18 1016.49 1016.76 1017.00 1017.21 1017.42 1017.65 1017.90 1018.20 1018.52 1018.85 1019.17 1019.47 1019.73 1019.94 1020.12 1020.28 1020.41 1020.54 1020.66 1020.79 1020.91 1021.03 1021.14 1021.24 1021.34 1021.46 1021.60 1021.77
1011.04 1011.70 1012.36 1012.96 1013.45 1013.81 1014.07 1014.25 1014.42 1014.60 1014.83 1015.10 1015.42 1015.75 1016.08 1016.38 1016.66 1016.91 1017.14 1017.37 1017.62 1017.90 1018.21 1018.54 1018.87 1019.21 1019.52 1019.80 1020.06 1020.28 1020.48 1020.67 1020.84 1020.99 1021.14 1021.26 1021.37 1021.46 1021.54 1021.63 1021.74 1021.88 1022.08
1010.99 1011.58 1012.17 1012.72 1013.18 1013.55 1013.83 1014.07 1014.28 1014.51 1014.77 1015.05 1015.37 1015.69 1016.01 1016.31 1016.59 1016.86 1017.11 1017.37 1017.65 1017.95 1018.28 1018.62 1018.97 1019.32 1019.65 1019.97 1020.27 1020.54 1020.81 1021.05 1021.28 1021.48 1021.66 1021.80 1021.90 1021.98 1022.04 1022.10 1022.19 1022.32 1022.51
1010.98 1011.51 1012.05 1012.55 1012.99 1013.36 1013.67 1013.95 1014.21 1014.47 1014.75 1015.05 1015.36 1015.68 1015.99 1016.29 1016.58 1016.86 1017.14 1017.44 1017.75 1018.09 1018.44 1018.81 1019.18 1019.55 1019.91 1020.26 1020.60 1020.94 1021.26 1021.56 1021.85 1022.10 1022.31 1022.47 1022.58 1022.65 1022.68 1022.71 1022.77 1022.86 1023.02
1011.01 1011.50 1012.00 1012.48 1012.91 1013.29 1013.63 1013.94 1014.24 1014.53 1014.82 1015.12 1015.43 1015.73 1016.03 1016.32 1016.62 1016.93 1017.26 1017.60 1017.96 1018.34 1018.73 1019.13 1019.53 1019.93 1020.31 1020.70 1021.07 1021.45 1021.82 1022.18 1022.51 1022.80 1023.05 1023.23 1023.34 1023.39 1023.41 1023.40 1023.41 1023.46 1023.57
1011.06 1011.54 1012.03 1012.51 1012.95 1013.36 1013.74 1014.08 1014.40 1014.71 1015.01 1015.29 1015.58 1015.86 1016.15 1016.45 1016.77 1017.11 1017.48 1017.87 1018.29 1018.73 1019.17 1019.61 1020.04 1020.45 1020.86 1021.26 1021.65 1022.06 1022.45 1022.84 1023.21 1023.53 1023.79 1023.98 1024.10 1024.14 1024.13 1024.09 1024.06 1024.06 1024.12
1011.10 1011.60 1012.11 1012.62 1013.10 1013.55 1013.97 1014.35 1014.70 1015.02 1015.31 1015.59 1015.85 1016.11 1016.39 1016.69 1017.03 1017.41 1017.83 1018.29 1018.77 1019.26 1019.75 1020.22 1020.67 1021.10 1021.51 1021.91 1022.31 1022.71 1023.11 1023.50 1023.87 1024.21 1024.47 1024.67 1024.78 1024.82 1024.79 1024.73 1024.66 1024.62 1024.63
1011.10 1011.63 1012.19 1012.75 1013.29 1013.81 1014.28 1014.71 1015.10 1015.43 1015.72 1015.98 1016.23 1016.48 1016.76 1017.07 1017.43 1017.85 1018.32 1018.84 1019.37 1019.92 1020.44 1020.94 1021.40 1021.83 1022.22 1022.61 1022.98 1023.36 1023.74 1024.12 1024.48 1024.80 1025.06 1025.25 1025.36 1025.39 1025.36 1025.29 1025.20 1025.14 1025.12
1011.03 1011.61 1012.22 1012.85 1013.47 1014.06 1014.61 1015.11 1015.53 1015.89 1016.20 1016.46 1016.71 1016.96 1017.24 1017.57 1017.97 1018.43 1018.95 1019.51 1020.09 1020.67 1021.21 1021.72 1022.18 1022.58 1022.95 1023.30 1023.64 1023.98 1024.32 1024.67 1025.00 1025.30 1025.55 1025.74 1025.84 1025.88 1025.85 1025.77 1025.69 1025.62 1025.58
1010.89 1011.51 1012.18 1012.88 1013.58 1014.26 1014.89 1015.46 1015.94 1016.35 1016.69 1016.98 1017.25 1017.52 1017.82 1018.18 1018.61 1019.11 1019.66 1020.26 1020.87 1021.46 1022.01 1022.51 1022.95 1023.32 1023.66 1023.96 1024.25 1024.55 1024.85 1025.16 1025.46 1025.74 1025.98 1026.15 1026.26 1026.30 1026.28 1026.22 1026.14 1026.08 1026.04
1010.69 1011.33 1012.05 1012.81 1013.59 1014.35 1015.07 1015.71 1016.27 1016.74 1017.14 1017.47 1017.78 1018.10 1018.44 1018.84 1019.31 1019.84 1020.42 1021.04 1021.65 1022.25 1022.79 1023.27 1023.67 1024.02 1024.31 1024.57 1024.82 1025.08 1025.34 1025.62 1025.90 1026.15 1026.38 1026.55 1026.66 1026.70 1026.70 1026.65 1026.60 1026.55 1026.52
1010.45 1011.09 1011.84 1012.65 1013.50 1014.33 1015.12 1015.85 1016.48 1017.03 1017.50 1017.90 1018.28 1018.65 1019.05 1019.50 1020.00 1020.57 1021.17 1021.79 1022.40 1022.98 1023.51 1023.95 1024.33 1024.64 1024.90 1025.13 1025.35 1025.58 1025.82 1026.08 1026.34 1026.58 1026.79 1026.96 1027.07 1027.13 1027.14 1027.11 1027.07 1027.04 1027.02
1010.22 1010.86 1011.61 1012.45 1013.33 1014.22 1015.07 1015.87 1016.58 1017.21 1017.76 1018.24 1018.70 1019.14 1019.60 1020.10 1020.65 1021.24 1021.85 1022.47 1023.07 1023.63 1024.13 1024.55 1024.89 1025.18 1025.42 1025.64 1025.85 1026.07 1026.31 1026.55 1026.80 1027.04 1027.25 1027.41 1027.53 1027.59 1027.61 1027.60 1027.57 1027.55 1027.54
1010.08 1010.69 1011.43 1012.26 1013.16 1014.07 1014.97 1015.82 1016.60 1017.30 1017.93 1018.50 1019.03 1019.55 1020.08 1020.63 1021.21 1021.82 1022.44 1023.05 1023.63 1024.17 1024.64 1025.04 1025.37 1025.64 1025.88 1026.10 1026.32 1026.54 1026.78 1027.04 1027.29 1027.53 1027.73 1027.90 1028.02 1028.08 1028.11 1028.10 1028.08 1028.06 1028.05
1010.08 1010.65 1011.36 1012.18 1013.06 1013.98 1014.90 1015.79 1016.61 1017.37 1018.07 1018.70 1019.31 1019.89 1020.47 1021.07 1021.68 1022.30 1022.91 1023.51 1024.08 1024.59 1025.04 1025.43 1025.75 1026.03 1026.28 1026.51 1026.74 1026.98 1027.24 1027.50 1027.76 1028.00 1028.21 1028.38 1028.49 1028.56 1028.59 1028.58 1028.57 1028.54 1028.53
Thickness
5796 5794 5790 5785 5779 5773 5768 5765 5760 5755 5750 5745 5740 5737 5735 5734 5733 5733 5733 5732 5732 5731 5731 5731 5730 5729 5728 5728 5726 5725 5723 5721 5720 5718 5715 5717 5718 5718 5718 5718 5717 5716 5715
5792 5791 5789 5784 5778 5773 5770 5765 5761 5757 5753 5749 5745 5741 5738 5735 5734 5733 5733 5732 5732 5731 5731 5731 5730 5730 5728 5727 5726 5725 5722 5721 5720 5717 5712 5710 5712 5717 5720 5719 5719 5718 5717
5792 5789 5786 5782 5778 5773 5770 5767 5763 5758 5754 5750 5744 5740 5736 5734 5732 5731 5732 5732 5732 5732 5732 5732 5731 5730 5729 5728 5727 5726 5724 5720 5719 5719 5715 5709 5706 5711 5717 5719 5720 5719 5719
5795 5790 5786 5781 5778 5775 5772 5768 5763 5759 5754 5749 5745 5740 5736 5733 5734 5733 5733 5733 5733 5733 5733 5733 5732 5731 5730 5729 5728 5727 5726 5723 5719 5718 5718 5717 5716 5710 5710 5715 5718 5720 5720
5795 5791 5788 5783 5779 5775 5771 5767 5763 5758 5754 5750 5746 5741 5738 5736 5735 5734 5733 5732 5733 5733 5733 5732 5731 5730 5730 5729 5728 5727 5726 5725 5722 5719 5718 5716 5714 5714 5710 5709 5713 5717 5720
5795 5791 5787 5783 5777 5774 5770 5765 5761 5757 5754 5750 5746 5742 5739 5736 5734 5732 5732 5731 5731 5732 5732 5731 5731 5730 5730 5729 5728 5727 5726 5725 5724 5722 5720 5718 5715 5713 5711 5709 5710 5712 5717
5793 5787 5783 5780 5776 5772 5768 5764 5759 5756 5753 5750 5746 5743 5740 5738 5735 5733 5732 5731 5730 5730 5731 5731 5730 5730 5729 5729 5728 5726 5725 5724 5723 5722 5721 5720 5719 5717 5714 5711 5710 5709 5713
5791 5787 5784 5780 5776 5773 5769 5765 5760 5756 5753 5749 5746 5743 5740 5738 5736 5734 5733 5732 5731 5731 5731 5731 5730 5729 5728 5728 5726 5725 5724 5723 5722 5722 5721 5720 5719 5718 5716 5713 5710 5706 5708
5791 5787 5783 5780 5776 5772 5769 5765 5760 5756 5753 5750 5746 5743 5741 5738 5736 5735 5733 5732 5731 5731 5731 5730 5729 5728 5727 5726 5725 5724 5723 5722 5721 5721 5719 5718 5718 5717 5716 5714 5712 5707 5703
5789 5786 5783 5779 5776 5773 5769 5765 5761 5756 5753 5749 5746 5743 5741 5740 5738 5735 5733 5732 5731 5731 5729 5728 5727 5726 5725 5724 5723 5722 5722 5720 5720 5719 5717 5716 5716 5715 5714 5712 5710 5708 5705
5787 5783 5780 5778 5774 5771 5766 5762 5758 5754 5751 5748 5745 5743 5741 5739 5737 5735 5734 5732 5730 5729 5728 5727 5725 5724 5722 5721 5721 5720 5720 5718 5717 5716 5715 5714 5713 5711 5710 5709 5707 5705 5703
5785 5782 5778 5774 5771 5767 5763 5759 5755 5752 5749 5747 5744 5742 5740 5737 5735 5734 5733 5731 5729 5728 5727 5725 5724 5722 5721 5720 5719 5718 5717 5716 5714 5713 5712 5711 5710 5708 5706 5705 5703 5702 5700
5781 5778 5774 5771 5767 5764 5760 5757 5754 5750 5748 5745 5742 5739 5737 5735 5733 5732 5731 5729 5728 5726 5724 5723 5721 5720 5719 5718 5717 5716 5714 5713 5712 5710 5709 5707 5706 5704 5702 5701 5699 5698 5697
5778 5774 5769 5766 5764 5760 5757 5754 5752 5749 5746 5743 5740 5737 5735 5733 5731 5730 5728 5726 5725 5723 5721 5720 5719 5718 5716 5715 5714 5713 5711 5709 5707 5706 5705 5704 5702 5700 5698 5696 5695 5693 5691
5773 5771 5767 5764 5760 5757 5754 5752 5749 5746 5744 5740 5737 5734 5732 5730 5728 5726 5724 5723 5721 5720 5718 5716 5715 5713 5712 5711 5710 5708 5706 5704 5702 5700 5699 5698 5696 5695 5694 5692 5690 5688 5685
5773 5770 5766 5762 5758 5755 5752 5749 5746 5743 5741 5737 5734 5731 5729 5726 5724 5722 5720 5718 5716 5714 5713 5711 5709 5708 5707 5706 5705 5703 5701 5698 5696 5693 5692 5691 5689 5688 5687 5685 5684 5682 5679
5772 5768 5764 5761 5757 5753 5750 5745 5742 5739 5736 5733 5730 5727 5724 5722 5720 5718 5716 5713 5711 5709 5707 5705 5704 5702 5701 5700 5698 5696 5694 5691 5689 5687 5685 5684 5682 5680 5678 5676 5674 5672 5670
5770 5766 5762 5757 5753 5749 5745 5741 5737 5733 5731 5728 5725 5722 5719 5717 5715 5712 5710 5708 5706 5703 5701 5699 5697 5696 5694 5692 5691 5689 5687 5684 5681 5679 5677 5675 5673 5672 5670 5667 5664 5661 5658
5766 5761 5757 5753 5748 5744 5740 5736 5732 5727 5724 5721 5718 5716 5714 5712 5709 5706 5704 5702 5699 5696 5694 5692 5690 5688 5686 5684 5683 5682 5679 5674 5671 5669 5667 5665 5664 5662 5661 5658 5654 5650 5646
5757 5752 5748 5744 5740 5736 5733 5729 5724 5721 5717 5714 5712 5710 5708 5705 5702 5699 5697 5695 5692 5689 5686 5684 5681 5680 5677 5676 5674 5673 5670 5665 5661 5658 5656 5655 5653 5652 5650 5647 5644 5639 5634
5748 5744 5740 5736 5731 5727 5724 5719 5716 5713 5711 5707 5704 5702 5700 5697 5694 5691 5689 5686 5684 5680 5678 5675 5672 5670 5667 5666 5665 5663 5660 5656 5652 5648 5645 5642 5641 5640 5637 5634 5631 5626 5622
5738 5735 5731 5726 5722 5719 5714 5709 5706 5705 5704 5700 5696 5693 5691 5688 5685 5682 5679 5677 5675 5671 5668 5665 5662 5659 5657 5656 5654 5652 5650 5647 5643 5638 5633 5630 5629 5627 5624 5620 5616 5613 5609
5728 5725 5722 5717 5712 5709 5705 5701 5698 5697 5695 5691 5687 5684 5681 5677 5675 5672 5670 5667 5665 5662 5658 5655 5651 5648 5646 5644 5642 5640 5638 5635 5631 5626 5622 5619 5617 5614 5609 5605 5602 5599 5595
5717 5714 5712 5707 5702 5698 5695 5691 5688 5687 5685 5681 5677 5674 5671 5667 5664 5661 5659 5657 5654 5651 5648 5645 5641 5637 5635 5633 5630 5628 5625 5622 5617 5613 5609 5606 5602 5599 5595 5591 5588 5584 5580
5706 5703 5700 5697 5692 5687 5684 5681 5678 5677 5675 5671 5667 5663 5660 5656 5652 5648 5644 5643 5640 5639 5637 5634 5631 5627 5623 5619 5618 5617 5613 5609 5605 5601 5597 5593 5589 5585 5580 5577 5573 5569 5566
5695 5692 5688 5684 5681 5677 5673 5671 5669 5669 5667 5662 5657 5653 5649 5645 5642 5638 5632 5628 5627 5625 5623 5621 5618 5614 5611 5608 5606 5604 5601 5597 5594 5590 5585 5579 5575 5571 5567 5563 5559 5555 5551